• MPC Preparation (Info)

  • MPEC 2023-J115 : 2023 JE1

    The following Minor Planet Electronic Circular may be linked-to from your own Web pages, but must not otherwise be redistributed electronically.

    A form allowing access to any MPEC is at the bottom of this page.


    Read MPEC 2023-J114 Read MPEC 2023-J116


    M.P.E.C. 2023-J115                                 Issued 2023 May 13, 01:36 UT
    
         The Minor Planet Electronic Circulars contain information on unusual
             minor planets, routine data on comets and natural satellites,
             and occasional editorial announcements.  They are published
        on behalf of Division F of the International Astronomical Union by the
              Minor Planet Center, Smithsonian Astrophysical Observatory,
                              Cambridge, MA 02138, U.S.A.
    			  
                 Prepared using the Tamkin Foundation Computer Network
    
                                  MPC@CFA.HARVARD.EDU
                URL https://www.minorplanetcenter.net/    ISSN 1523-6714
    
                                    2023 JE1                                 
    
    
    Observations:
         K23J01E*1C2023 05 11.18271813 22 35.465-03 53 51.47         20.92GVEJ115G96
         K23J01E 1C2023 05 11.18784713 22 34.194-03 54 34.20         21.07GVEJ115G96
         K23J01E 1C2023 05 11.19297013 22 32.959-03 55 18.12         21.15GVEJ115G96
         K23J01E 1C2023 05 11.19811213 22 31.645-03 56 01.00         20.62GVEJ115G96
         K23J01E KC2023 05 11.29451413 22 07.860-04 09 30.46         20.82GVEJ115I52
         K23J01E KC2023 05 11.29582913 22 07.540-04 09 41.18         21.27GVEJ115I52
         K23J01E |C2023 05 12.03660 13 19 31.72 -05 50 19.0          21.2 GVEJ115807
         K23J01E |C2023 05 12.04213 13 19 30.44 -05 51 04.0          21.3 GVEJ115807
         K23J01E |C2023 05 12.04766 13 19 29.15 -05 51 49.0          21.1 GVEJ115807
         K23J01E  C2023 05 12.21646613 18 51.922-06 15 52.09         21.1 GVEJ115H01
         K23J01E  C2023 05 12.22097413 18 50.860-06 16 28.48         21.3 GVEJ115H01
         K23J01E  C2023 05 12.23079913 18 48.565-06 17 47.36         21.3 GVEJ115H01
         K23J01E  C2023 05 12.24238813 18 45.858-06 19 20.52         21.9 GVEJ115H01
         K23J01E |C2023 05 13.02239 13 16 09.74 -08 00 49.8          21.0 VuEJ115807
         K23J01E |C2023 05 13.02840 13 16 08.46 -08 01 35.8          21.4 VuEJ115807
         K23J01E |C2023 05 13.03441 13 16 07.11 -08 02 22.4          21.3 VuEJ115807
    
    Observer details:
    807 Cerro Tololo Observatory, La Serena.  Observers T. Linder, R. Holmes, L.
        Horn.  1.00-m f/10.0 astrograph + CCD, 0.61-m f/6.5 Dall-Kirkham
        Astrograph + CCD.
    G96 Mt. Lemmon Survey.  Observer G. J. Leonard.  Measurers E. J. Christensen,
        D. Fay, J. B. Fazekas, D. C. Fuls, A. R. Gibbs, A. D. Grauer, H. Groeller,
        J. K. Hogan, R. A. Kowalski, S. M. Larson, G. J. Leonard, D. Rankin, R. L.
        Seaman, A. Serrano, F. C. Shelly, K. W. Wierzchos.  1.5-m reflector + 10K
        CCD.
    H01 Magdalena Ridge Observatory, Socorro.  Observers W. H. Ryan, E. V. Ryan.
        Measurer W. H. Ryan.  2.4-m f/8.9 Ritchey-Chretien + CCD.
    I52 Steward Observatory, Mt. Lemmon Station.  Observer R. A. Kowalski.
        Measurers E. J. Christensen, D. Fay, J. B. Fazekas, D. C. Fuls, A. R.
        Gibbs, A. D. Grauer, H. Groeller, J. K. Hogan, R. A. Kowalski, S. M.
        Larson, G. J. Leonard, D. Rankin, R. L. Seaman, A. Serrano, F. C. Shelly,
        K. W. Wierzchos.  1.0-m prime focus + CCD.
    
    Orbital elements:
    2023 JE1                                                 Earth MOID = 0.0998 AU
    Epoch 2023 Feb. 25.0 TT = JDT 2460000.5                 MPC                     
    M   6.58547              (2000.0)            P               Q                  
    n   0.79459226     Peri.   98.12784     -0.80142285     -0.55490087             
    a   1.1544448      Node    48.49894     +0.36001581     -0.74553083             
    e   0.1259223      Incl.   17.33659     +0.47760865     -0.36914606             
    P   1.24           H   24.56          G   0.15           U   7                  
    Residuals in seconds of arc
    230511 G96  0.1+  0.2-    230512 807  0.3-  0.0     230512 H01  0.1+  0.1+
    230511 G96  0.0   0.3+    230512 807  0.0   0.0     230513 807 (0.6-  0.9-)
    230511 G96  0.5+  0.5-    230512 807  0.2+  0.0     230513 807  0.2+  0.1-
    230511 G96  0.1-  0.0     230512 H01  0.1-  0.0     230513 807  0.1+  0.0
    230511 I52  0.0   0.1+    230512 H01  0.1-  0.1-
    230511 I52  0.0   0.4+    230512 H01  0.0   0.1+
    
    Ephemeris:
    2023 JE1                 a,e,i = 1.15, 0.13, 17                  q = 1.0091
    Date    TT    R. A. (2000) Decl.     Delta      r    Elong.  Phase     V
    2023 04 13    16 07 30.1 +53 39 00   0.1500  1.0599   108.6    63.7    22.8
    ...
    2023 04 28    14 28 42.4 +30 28 49   0.1086  1.0867   135.6    40.4    21.5
    ...
    2023 05 06    13 44 26.1 +09 19 47   0.1070  1.1022   149.7    27.5    21.1
    ...
    2023 05 12    13 19 37.6 -05 45 46   0.1187  1.1141   149.7    27.2    21.4
    2023 05 13    13 16 12.2 -07 58 17   0.1216  1.1161   148.9    27.9    21.5
    2023 05 14    13 12 58.6 -10 04 39   0.1248  1.1182   147.9    28.7    21.5
    ...
    2023 05 20    12 57 32.2 -20 36 00   0.1479  1.1303   140.9    34.4    22.1
    ...
    2023 05 28    12 46 06.7 -30 01 32   0.1863  1.1465   132.1    41.0    22.8
    ...
    2023 06 12    12 45 06.4 -39 49 59   0.2698  1.1765   120.8    47.9    23.9
    
    A. U. Tomatic                (C) Copyright 2023 MPC           M.P.E.C. 2023-J115
    


    Read MPEC 2023-J114 Read MPEC 2023-J116


    MPEC number:

    Enter an MPEC number in one of the following forms:

    • 1997-B01 (the full form)
    • J97B01 (the packed version of the full form)
    • B01 (the abbreviated form)